| time (UTC) | temp F | wind direction | speed MPH | gust MPH | rain 1hr in | rain 24hr in | rain mn in | humidity % | barometer mb |
| 20260510203202 | 63 | 274 | 2.0 | 8.0 | 0.00 | 0.02 | 0.01 | 62 | 1009.3 |
| 20260510202305 | 63 | 292 | 1.0 | 8.0 | 0.00 | 0.03 | 0.01 | 63 | 1009.4 |
| 20260510201402 | 64 | 266 | 2.0 | 5.0 | 0.00 | 0.03 | 0.01 | 63 | 1009.4 |
| 20260510200502 | 64 | 239 | 2.0 | 7.0 | 0.00 | 0.04 | 0.01 | 62 | 1009.5 |
| 20260510195602 | 64 | 262 | 2.0 | 9.0 | 0.00 | 0.04 | 0.01 | 65 | 1009.5 |
| 20260510133003 | 50 | 177 | 1.0 | 5.0 | 0.00 | 0.16 | 0.01 | 96 | 1009.6 |
| 20260510132101 | 50 | 176 | 1.0 | 4.0 | 0.00 | 0.16 | 0.01 | 96 | 1009.5 |
| 20260510131201 | 50 | 176 | 0.0 | 3.0 | 0.00 | 0.16 | 0.01 | 96 | 1009.3 |
| 20260510130301 | 50 | 197 | 0.0 | 2.0 | 0.00 | 0.16 | 0.01 | 96 | 1009.4 |
| 20260510125401 | 49 | 170 | 0.0 | 3.0 | 0.00 | 0.16 | 0.01 | 96 | 1009.5 |
| 20260510122701 | 48 | 163 | 0.0 | 5.0 | 0.00 | 0.16 | 0.01 | 96 | 1009.4 |
| 20260510121800 | 48 | 170 | 1.0 | 4.0 | 0.00 | 0.16 | 0.01 | 96 | 1009.4 |
| 20260510120901 | 48 | 176 | 1.0 | 4.0 | 0.00 | 0.16 | 0.01 | 96 | 1009.5 |
| 20260510120001 | 48 | 149 | 0.0 | 4.0 | 0.00 | 0.16 | 0.01 | 96 | 1009.4 |
| 20260510115100 | 48 | 171 | 0.0 | 4.0 | 0.00 | 0.16 | 0.01 | 96 | 1009.4 |
| 20260510114200 | 48 | 171 | 0.0 | 2.0 | 0.00 | 0.16 | 0.01 | 96 | 1009.2 |
| 20260510113300 | 48 | 165 | 0.0 | 3.0 | 0.00 | 0.16 | 0.01 | 96 | 1009.1 |
| 20260510111501 | 48 | 188 | 0.0 | 2.0 | 0.00 | 0.16 | 0.01 | 95 | 1009.3 |
| 20260510110600 | 48 | 194 | 0.0 | 2.0 | 0.00 | 0.16 | 0.01 | 95 | 1009.1 |
| 20260510105700 | 48 | 171 | 0.0 | 2.0 | 0.00 | 0.16 | 0.01 | 95 | 1009.0 |
| 20260510104800 | 48 | 163 | 0.0 | 2.0 | 0.00 | 0.16 | 0.01 | 95 | 1008.8 |
| 20260510103000 | 48 | 159 | 0.0 | 1.0 | 0.00 | 0.16 | 0.01 | 95 | 1008.5 |
| 20260510102100 | 48 | 133 | 0.0 | 2.0 | 0.00 | 0.16 | 0.01 | 95 | 1008.2 |
| 20260510101200 | 48 | 160 | 0.0 | 3.0 | 0.00 | 0.16 | 0.01 | 95 | 1007.8 |
| 20260510100300 | 47 | 183 | 0.0 | 2.0 | 0.00 | 0.16 | 0.01 | 96 | 1007.6 |
| 20260510094500 | 47 | 182 | 0.0 | 1.0 | 0.00 | 0.16 | 0.01 | 96 | 1007.8 |
| 20260510093600 | 47 | 181 | 0.0 | 1.0 | 0.00 | 0.16 | 0.01 | 96 | 1007.7 |
| 20260510092700 | 47 | 181 | 0.0 | 1.0 | 0.00 | 0.16 | 0.01 | 96 | 1007.3 |
| 20260510090900 | 47 | 181 | 0.0 | 2.0 | 0.00 | 0.16 | 0.01 | 96 | 1007.7 |
| 20260510090000 | 47 | 183 | 0.0 | 2.0 | 0.00 | 0.16 | 0.01 | 96 | 1007.3 |
| 20260510085100 | 47 | 0 | 0.0 | 0.0 | 0.00 | 0.16 | 0.01 | 96 | 1007.7 |
| 20260510084200 | 47 | 187 | 0.0 | 2.0 | 0.00 | 0.16 | 0.01 | 96 | 1007.8 |
| 20260510082400 | 47 | 188 | 0.0 | 1.0 | 0.00 | 0.16 | 0.01 | 96 | 1007.9 |
| 20260510080600 | 47 | 188 | 0.0 | 1.0 | 0.00 | 0.16 | 0.01 | 96 | 1008.0 |
| 20260510075700 | 48 | 188 | 0.0 | 5.0 | 0.00 | 0.16 | 0.01 | 95 | 1007.9 |
| 20260510074800 | 47 | 188 | 0.0 | 2.0 | 0.00 | 0.16 | 0.01 | 96 | 1008.0 |
| 20260510073900 | 47 | 188 | 0.0 | 2.0 | 0.00 | 0.16 | 0.01 | 96 | 1007.9 |
| 20260510073000 | 47 | 187 | 0.0 | 2.0 | 0.00 | 0.16 | 0.01 | 96 | 1008.0 |
| 20260510072100 | 47 | 189 | 0.0 | 1.0 | 0.00 | 0.16 | 0.01 | 96 | 1007.9 |
| 20260510071200 | 47 | 194 | 0.0 | 2.0 | 0.00 | 0.16 | 0.01 | 96 | 1007.8 |
| 20260510070300 | 47 | 206 | 0.0 | 1.0 | 0.00 | 0.16 | 0.01 | 95 | 1007.8 |
| 20260510065400 | 47 | 205 | 0.0 | 2.0 | 0.00 | 0.16 | 0.01 | 95 | 1007.9 |
| 20260510064500 | 47 | 203 | 0.0 | 1.0 | 0.00 | 0.16 | 0.01 | 96 | 1007.9 |
| 20260510063600 | 46 | 204 | 0.0 | 2.0 | 0.00 | 0.16 | 0.01 | 95 | 1008.1 |
| 20260510062700 | 46 | 205 | 0.0 | 2.0 | 0.01 | 0.16 | 0.01 | 95 | 1008.1 |
| 20260510061800 | 46 | 0 | 0.0 | 0.0 | 0.01 | 0.16 | 0.01 | 95 | 1007.9 |
| 20260510053300 | 45 | 0 | 0.0 | 0.0 | 0.01 | 0.16 | 0.01 | 95 | 1008.1 |
| 20260510052400 | 45 | 0 | 0.0 | 0.0 | 0.00 | 0.15 | 0.00 | 95 | 1008.0 |
| 20260510051500 | 45 | 0 | 0.0 | 0.0 | 0.00 | 0.15 | 0.00 | 95 | 1008.1 |
| 20260510050600 | 45 | 0 | 0.0 | 0.0 | 0.00 | 0.15 | 0.00 | 95 | 1008.1 |
| 20260510045700 | 45 | 0 | 0.0 | 0.0 | 0.00 | 0.15 | 0.00 | 95 | 1008.1 |
| 20260510044800 | 45 | 0 | 0.0 | 0.0 | 0.00 | 0.15 | 0.00 | 95 | 1008.4 |
| 20260510043900 | 45 | 0 | 0.0 | 0.0 | 0.00 | 0.15 | 0.00 | 95 | 1008.2 |
| 20260510043000 | 45 | 0 | 0.0 | 0.0 | 0.00 | 0.15 | 0.00 | 95 | 1008.3 |
| 20260510042100 | 45 | 0 | 0.0 | 0.0 | 0.00 | 0.15 | 0.00 | 95 | 1008.2 |
| 20260510040300 | 44 | 0 | 0.0 | 0.0 | 0.00 | 0.15 | 0.00 | 95 | 1008.4 |
| 20260510035400 | 44 | 0 | 0.0 | 0.0 | 0.00 | 0.15 | 0.15 | 95 | 1008.4 |
| 20260510034500 | 44 | 0 | 0.0 | 0.0 | 0.00 | 0.15 | 0.15 | 95 | 1008.3 |
| 20260510033559 | 44 | 0 | 0.0 | 0.0 | 0.00 | 0.15 | 0.15 | 95 | 1008.3 |
| 20260510032659 | 44 | 0 | 0.0 | 0.0 | 0.00 | 0.15 | 0.15 | 95 | 1008.4 |
| 20260510031800 | 44 | 0 | 0.0 | 0.0 | 0.00 | 0.15 | 0.15 | 95 | 1008.4 |
| 20260510030000 | 44 | 206 | 0.0 | 1.0 | 0.00 | 0.15 | 0.15 | 95 | 1008.4 |
| 20260510025059 | 44 | 0 | 0.0 | 0.0 | 0.00 | 0.15 | 0.15 | 95 | 1008.6 |
| 20260510024159 | 44 | 206 | 0.0 | 1.0 | 0.00 | 0.15 | 0.15 | 95 | 1008.7 |
| 20260510023259 | 44 | 0 | 0.0 | 0.0 | 0.00 | 0.15 | 0.15 | 95 | 1008.9 |
| 20260510022359 | 44 | 205 | 0.0 | 1.0 | 0.00 | 0.15 | 0.15 | 95 | 1008.9 |
| 20260510021459 | 44 | 205 | 0.0 | 2.0 | 0.00 | 0.15 | 0.15 | 95 | 1008.9 |
| 20260510020559 | 44 | 206 | 0.0 | 4.0 | 0.00 | 0.15 | 0.15 | 95 | 1008.7 |
| 20260510015659 | 44 | 210 | 0.0 | 2.0 | 0.00 | 0.15 | 0.15 | 95 | 1008.8 |
| 20260510014759 | 44 | 210 | 0.0 | 2.0 | 0.00 | 0.15 | 0.15 | 95 | 1008.9 |
| 20260510013859 | 44 | 208 | 0.0 | 3.0 | 0.00 | 0.15 | 0.15 | 95 | 1008.8 |
| 20260510012959 | 44 | 206 | 0.0 | 1.0 | 0.00 | 0.15 | 0.15 | 95 | 1008.7 |
| 20260510012059 | 44 | 208 | 0.0 | 3.0 | 0.00 | 0.15 | 0.15 | 95 | 1008.9 |
| 20260510010259 | 44 | 212 | 0.0 | 3.0 | 0.00 | 0.15 | 0.15 | 95 | 1008.8 |
| 20260510005359 | 44 | 212 | 0.0 | 3.0 | 0.00 | 0.15 | 0.15 | 95 | 1008.9 |
| 20260510004459 | 44 | 213 | 0.0 | 1.0 | 0.00 | 0.15 | 0.15 | 95 | 1008.8 |
| 20260510003559 | 44 | 0 | 0.0 | 0.0 | 0.00 | 0.15 | 0.15 | 95 | 1008.7 |
| 20260510002659 | 44 | 0 | 0.0 | 0.0 | 0.00 | 0.15 | 0.15 | 95 | 1008.6 |
| 20260510001759 | 44 | 213 | 0.0 | 2.0 | 0.00 | 0.15 | 0.15 | 94 | 1008.4 |
| 20260510000859 | 44 | 212 | 0.0 | 2.0 | 0.00 | 0.15 | 0.15 | 94 | 1008.4 |
| 20260509235959 | 44 | 211 | 0.0 | 2.0 | 0.00 | 0.15 | 0.15 | 94 | 1008.2 |
| 20260509235059 | 44 | 211 | 0.0 | 1.0 | 0.00 | 0.15 | 0.15 | 94 | 1008.1 |
| 20260509234159 | 44 | 0 | 0.0 | 0.0 | 0.00 | 0.15 | 0.15 | 94 | 1008.1 |
| 20260509233259 | 44 | 211 | 0.0 | 3.0 | 0.00 | 0.15 | 0.15 | 94 | 1008.0 |
| 20260509232400 | 44 | 210 | 0.0 | 2.0 | 0.00 | 0.15 | 0.15 | 95 | 1008.1 |
| 20260509231459 | 44 | 0 | 0.0 | 0.0 | 0.00 | 0.15 | 0.15 | 95 | 1008.0 |
| 20260509230559 | 45 | 211 | 0.0 | 1.0 | 0.00 | 0.15 | 0.15 | 95 | 1008.0 |
| 20260509225659 | 45 | 211 | 0.0 | 1.0 | 0.00 | 0.15 | 0.15 | 95 | 1008.0 |
| 20260509224759 | 44 | 211 | 0.0 | 1.0 | 0.00 | 0.15 | 0.15 | 95 | 1008.1 |
| 20260509223859 | 44 | 211 | 0.0 | 1.0 | 0.00 | 0.15 | 0.15 | 94 | 1008.1 |
| 20260509222959 | 44 | 211 | 0.0 | 2.0 | 0.01 | 0.15 | 0.15 | 94 | 1008.1 |
| 20260509222059 | 44 | 211 | 0.0 | 3.0 | 0.01 | 0.15 | 0.15 | 94 | 1008.0 |
| 20260509221159 | 44 | 210 | 0.0 | 1.0 | 0.01 | 0.15 | 0.15 | 94 | 1008.1 |
| 20260509220259 | 44 | 206 | 0.0 | 2.0 | 0.01 | 0.15 | 0.15 | 94 | 1008.2 |
| 20260509214459 | 44 | 0 | 0.0 | 0.0 | 0.01 | 0.15 | 0.15 | 94 | 1008.3 |
| 20260509213559 | 44 | 206 | 0.0 | 1.0 | 0.00 | 0.14 | 0.14 | 94 | 1008.4 |
| 20260509212659 | 44 | 206 | 0.0 | 3.0 | 0.01 | 0.14 | 0.14 | 94 | 1008.5 |
| 20260509211759 | 44 | 207 | 0.0 | 1.0 | 0.01 | 0.14 | 0.14 | 94 | 1008.5 |
| 20260509210859 | 45 | 207 | 0.0 | 3.0 | 0.01 | 0.14 | 0.14 | 94 | 1008.6 |
| 20260509205059 | 45 | 207 | 0.0 | 5.0 | 0.02 | 0.14 | 0.14 | 94 | 1008.6 |
| 20260509204159 | 45 | 207 | 1.0 | 5.0 | 0.02 | 0.14 | 0.14 | 94 | 1008.5 |